Location: Unspecified
(40.7945°N, 0.0000°E)
Time: 05:49:56
(UTC+00:00)

A-11 Canister half - Pass Details

Date: 22 January 2021
Orbit: 1516 x 1684 km, 47.2° (Epoch: 07 March)

Event Time Altitude Azimuth Distance (km) Brightness Sun altitude
Rises 04:22:45 0° 296° (WNW) 4,664 - -33.1°
Reaches altitude 10° 04:26:07 10° 287° (WNW) 3,685 - -32.4°
Maximum altitude 04:34:03 33° 228° (SW) 2,351 - -30.9°
Exits shadow 04:35:53 31° 207° (SSW) 2,447 9.8 -30.6°
Drops below altitude 10° 04:42:10 10° 168° (SSE) 3,751 11.2 -29.4°
Sets 04:45:39 0° 159° (SSE) 4,758 11.9 -28.7°
